Location: North Mitre
(40.7833°S, 175.4667°E)
Time: 03:58:08
(UTC+00:00)

Timation 2 Rocket - Pass Details

Date: 04 August 2024
Orbit: 906 x 1073 km, 70.0° (Epoch: 07 September)

Event Time Altitude Azimuth Distance (km) Brightness Sun altitude
Exits shadow 16:55:12 - 348° (NNW) 3,217 6.6 -27.7°
Reaches altitude 10° 16:56:20 10° 349° (N) 2,812 6.3 -27.5°
Maximum altitude 17:02:53 67° 69° (ENE) 1,142 4.4 -26.2°
Drops below altitude 10° 17:09:43 10° 150° (SSE) 2,928 6.8 -25.0°
Sets 17:12:24 0° 152° (SSE) 3,896 7.5 -24.4°
